[[{"header":{"parameterUnit":"m.s-1","parameterCategory":1,"la1":30.2991,"la2":30.254,"lo1":-89.0895,"lo2":-89.0444,"dy":0.0017,"dx":0.0017,"nx":28,"ny":28,"refTime":"2026-03-04T03:00:00:Z","depth":0,"parameterNumber":2,"parameterNumberName":"U-component_of_WINDS"},"data":[0,0,0,0,0,0,0,0,0,0,0,0,0,0,0,0,0,0,0,0,0,0,0,0,0,0,0,0,0,0,0,0,0,0,0,0,0,0,0,0,0,0,0,0,0,0,0,0,0,0,0,0,0,0,0,0,0,0,-4.8093,-4.8094,0,-4.8197,-4.8198,-4.8199,-4.8127,-4.8124,-4.8121,-4.8118,-4.8225,-4.823,-4.8236,0,0,0,0,0,0,0,0,0,0,0,0,0,-4.7837,-4.7842,-4.8093,-4.8094,-4.8095,-4.8196,-4.8198,-4.8199,-4.8128,-4.8124,-4.812,-4.8116,-4.8223,-4.823,-4.8237,0,0,0,0,0,0,0,0,0,0,0,0,0,-4.7945,-4.7843,-4.8093,-4.8072,-4.8071,-4.8196,-4.8198,-4.82,-4.8129,-4.8124,-4.8119,-4.8115,-4.822,-4.8229,-4.8238,-4.8388,0,0,-4.8264,-4.8268,0,0,0,0,0,0,0,0,-4.7939,-4.7954,-4.8074,-4.8074,-4.8073,-4.8144,-4.8146,-4.8263,-4.813,-4.8107,-4.8118,-4.8112,-4.8202,-4.8212,-4.8242,-4.8393,-4.8398,-4.8265,-4.827,-4.8274,-4.8277,0,0,0,0,0,0,0,-4.7931,-4.7949,-4.8134,-4.8076,-4.8075,-4.8059,-4.8069,-4.8168,-4.818,-4.8109,-4.8104,-4.8117,-4.8201,-4.8234,-4.8244,-4.84,-4.8265,-4.8273,-4.8278,-4.8282,-4.8683,-4.8689,0,0,0,0,0,0,-4.7925,-4.7944,-4.813,-4.8137,-4.7993,-4.8067,-4.8078,-4.8126,-4.8179,-4.8182,-4.8121,-4.8113,-4.8221,-4.8234,-4.8247,-4.8428,-4.8274,-4.8282,-4.8287,-4.8678,-4.8685,-4.869,0,0,0,0,0,0,-4.792,-4.7943,-4.8126,-4.8039,-4.8061,-4.8077,-4.8131,-4.8131,-4.8163,-4.8188,-4.819,-4.8152,-4.8218,-4.8235,-4.8354,-4.8431,-4.8286,-4.8294,-4.8672,-4.868,-4.8688,-4.8791,0,0,0,0,0,0,-4.7913,-4.7941,-4.7998,-4.8041,-4.8066,-4.8231,-4.8136,-4.8136,-4.8179,-4.817,-4.8218,-4.8221,-4.8215,-4.8342,-4.8363,-4.844,-4.8301,-4.8665,-4.8675,-4.8685,-4.8781,-4.8802,-4.882,0,0,0,0,0,-4.7904,-4.8022,-4.8001,-4.8024,-4.8137,-4.8235,-4.825,-4.824,-4.8185,-4.8243,-4.8259,-4.822,-4.842,-4.8355,-4.8378,-4.8459,-4.866,-4.8672,-4.8684,-4.8772,-4.8798,-4.8819,0,0,0,0,0,0,-4.7986,-4.8027,-4.8004,-4.8139,-4.8185,-4.8223,-4.8295,-4.8267,-4.8329,-4.8318,-4.8304,-4.8315,-4.8441,-4.8462,-4.8389,-4.861,-4.8531,-4.8549,-4.859,-4.8615,-4.8634,-4.8625,-4.8308,0,0,0,0,0,-4.8021,-4.8097,-4.8129,-4.8245,-4.8269,-4.8279,-4.8321,-4.831,-4.8357,-4.8375,-4.84,-4.8447,-4.8521,-4.8569,-4.8638,-4.8785,-4.8795,-4.8853,-4.8872,-4.8888,-4.8903,-4.8984,-4.901,-4.8731,-4.873,-4.873,0,0,-4.8091,-4.8123,-4.8172,-4.8263,-4.8296,-4.8376,-4.8295,-4.8382,-4.8442,-4.8388,-4.8502,-4.8524,-4.8575,-4.871,-4.877,-4.8732,-4.8983,-4.8904,-4.8916,-4.8922,-4.8999,-4.9026,-4.9049,-4.8739,-4.8737,-4.8736,0,0,-4.826,-4.8292,-4.8393,-4.843,-4.8483,-4.8489,-4.8514,-4.8558,-4.857,-4.8685,-4.8647,-4.8719,-4.8845,-4.8884,-4.892,-4.911,-4.9077,-4.9134,-4.9234,-4.9313,-4.9335,-4.9355,-4.9423,-4.9447,-4.9149,-4.9149,-4.9149,0,-4.8341,-4.8459,-4.8449,-4.854,-4.8582,-4.8539,-4.8643,-4.8679,-4.8751,-4.8782,-4.8738,-4.8898,-4.893,-4.9074,-4.912,-4.9152,-4.918,-4.9126,-4.9333,-4.9352,-4.937,-4.9435,-4.9461,-4.9155,-4.9155,-4.9154,-4.9153,0,-4.8557,-4.864,-4.8716,-4.8788,-4.8839,-4.8936,-4.8941,-4.8995,-4.8981,-4.8993,-4.9112,-4.915,-4.9226,-4.926,-4.9247,-4.9403,-4.9378,-4.9334,-4.9255,-4.9404,-4.9464,-4.9489,-4.9165,-4.9162,-4.916,-4.9159,0,0,-4.8776,-4.8845,-4.8872,-4.8906,-4.8963,-4.9028,-4.9125,-4.92,-4.9247,-4.93,-4.9381,-4.9492,-4.9453,-4.9494,-4.9486,-4.9556,-4.9705,-4.9504,-4.9505,-4.954,-4.9881,-4.9912,-4.9941,-4.9685,-4.969,-4.9693,-4.9877,0,-4.8948,-4.9115,-4.9111,-4.9267,-4.9345,-4.9308,-4.9393,-4.9438,-4.9453,-4.9522,-4.9539,-4.9618,-4.956,-4.9585,-4.9653,-4.9673,-4.9773,-4.966,-4.976,-4.9764,-4.9746,-4.9973,-5.0005,-5.0176,-4.99,-4.9904,-4.9907,0,-4.9169,-4.9231,-4.9395,-4.9444,-4.9477,-4.9553,-4.9623,-4.969,-4.9742,-4.9749,-4.9798,-4.9779,-4.9879,-4.98,-4.9938,-4.9861,-4.9903,-4.992,-4.9926,-4.9933,-4.9843,-4.9985,-5.023,-5.0255,-4.9944,-4.9941,-4.9939,0,-4.9312,-4.9437,-4.9552,-4.9582,-4.9642,-4.9697,-4.9724,-4.9772,-4.9819,-4.9882,-4.9912,-4.9986,-5.0026,-5.0084,-5.0087,-5.0029,-5.0228,-5.0148,-5.0236,-5.0236,-5.0276,-5.0273,-5.0531,-5.0307,-5.0306,-5.0306,-5.0305,0,-4.9503,-4.9605,-4.9617,-4.9687,-4.9802,-4.9798,-4.9911,-4.9934,-4.9978,-5.0053,-5.0027,-5.0098,-5.0099,-5.0172,-5.0176,-5.0291,-5.0309,-5.0317,-5.0317,-5.0319,-5.0318,-5.0344,-5.0331,-5.0313,-5.0311,-5.031,-5.0309,0,-4.968,-4.9692,-4.9815,-4.9864,-4.9879,-4.9961,-5.0002,-5.007,-5.0085,-5.0181,-5.0203,-5.0226,-5.0312,-5.0322,-5.0422,-5.0424,-5.0562,-5.055,-5.0544,-5.0542,-5.0629,-5.062,-5.091,-5.0948,-5.0701,-5.0704,-5.0706,0,-4.98,-4.9877,-4.9935,-4.9984,-5.0015,-5.0094,-5.0143,-5.0144,-5.0196,-5.0264,-5.0324,-5.0408,-5.0474,-5.0613,-5.0639,-5.0716,-5.0704,-5.0801,-5.0715,-5.0716,-5.0705,-5.07,-5.0708,-5.0817,-5.0819,-5.0821,-5.0823,0,-5.0011,-5.0014,-5.0085,-5.016,-5.0219,-5.0278,-5.0333,-5.0375,-5.0383,-5.0443,-5.0531,-5.0583,-5.0686,-5.077,-5.0847,-5.0876,-5.0852,-5.0851,-5.0875,-5.0876,-5.087,-5.0874,-5.0588,-5.0843,-5.0841,-5.084,-5.0839,-5.0838,-5.0162,-5.023,-5.0283,-5.0364,-5.0406,-5.0459,-5.0526,-5.055,-5.0624,-5.0707,-5.0705,-5.0802,-5.0856,-5.0957,-5.0993,-5.107,-5.1037,-5.1073,-5.1081,-5.109,-5.1098,-5.086,-5.1084,-5.1083,-5.1083,-5.1082,-5.1082,0,-5.0371,-5.0404,-5.0479,-5.0558,-5.0622,-5.0596,-5.0657,-5.0712,-5.0798,-5.0851,-5.0918,-5.1021,-5.1103,-5.1137,-5.1218,-5.1274,-5.1265,-5.1295,-5.1289,-5.1297,-5.1122,-5.1093,-5.1301,-5.1301,-5.1301,-5.1301,-5.13,-5.13,-5.0487,-5.0602,-5.0613,-5.0749,-5.0782,-5.0877,-5.0914,-5.0964,-5.1006,-5.1122,-5.119,-5.1213,-5.1259,-5.1344,-5.1419,-5.1427,-5.1458,-5.1493,-5.1496,-5.1331,-5.1309,-5.1288,-5.126,-5.15,-5.15,-5.1664,-5.1665,-5.1667]},{"header":{"parameterUnit":"m.s-1","parameterCategory":1,"la1":30.2991,"la2":30.254,"lo1":-89.0895,"lo2":-89.0444,"dy":0.0017,"dx":0.0017,"nx":28,"ny":28,"refTime":"2026-03-04T03:00:00:Z","depth":0,"parameterNumber":3,"parameterNumberName":"V-component_of_WINDS"},"data":[0,0,0,0,0,0,0,0,0,0,0,0,0,0,0,0,0,0,0,0,0,0,0,0,0,0,0,0,0,0,0,0,0,0,0,0,0,0,0,0,0,0,0,0,0,0,0,0,0,0,0,0,0,0,0,0,0,0,1.3384,1.3385,0,1.3449,1.3449,1.345,1.3515,1.3516,1.3516,1.3517,1.3579,1.358,1.3581,0,0,0,0,0,0,0,0,0,0,0,0,0,1.3314,1.3315,1.3384,1.3385,1.3385,1.3448,1.3449,1.345,1.3515,1.3516,1.3517,1.3518,1.3579,1.358,1.3581,0,0,0,0,0,0,0,0,0,0,0,0,0,1.3358,1.3315,1.3384,1.3425,1.343,1.3448,1.3449,1.345,1.3514,1.3516,1.3517,1.3518,1.3579,1.358,1.3581,1.3563,0,0,1.3585,1.3586,0,0,0,0,0,0,0,0,1.3355,1.336,1.3418,1.3422,1.3427,1.3475,1.3447,1.3488,1.3514,1.3482,1.3517,1.3519,1.3543,1.3548,1.3557,1.3566,1.3568,1.3585,1.3586,1.3587,1.3587,0,0,0,0,0,0,0,1.3352,1.3358,1.3409,1.3419,1.3425,1.344,1.3448,1.3455,1.3504,1.3485,1.349,1.3497,1.3546,1.3555,1.3559,1.3569,1.3585,1.3586,1.3587,1.3588,1.3568,1.3567,0,0,0,0,0,0,1.3343,1.3355,1.3407,1.3411,1.3394,1.344,1.3449,1.3458,1.3505,1.3513,1.3496,1.35,1.3553,1.3557,1.3561,1.3544,1.3586,1.3588,1.3588,1.357,1.3568,1.3567,0,0,0,0,0,0,1.3341,1.3347,1.3405,1.3384,1.3393,1.344,1.345,1.3459,1.3468,1.3513,1.3521,1.3496,1.3554,1.3559,1.3563,1.3547,1.3588,1.3589,1.3571,1.3569,1.3567,1.3508,0,0,0,0,0,0,1.3339,1.3346,1.334,1.3384,1.3394,1.3406,1.3449,1.3459,1.3471,1.3477,1.3516,1.3523,1.3555,1.356,1.3564,1.3549,1.359,1.3573,1.357,1.3568,1.3512,1.3504,1.3498,0,0,0,0,0,1.3336,1.3319,1.3339,1.3345,1.3387,1.3404,1.341,1.3448,1.3469,1.3463,1.3492,1.3522,1.3548,1.356,1.3565,1.355,1.3574,1.3571,1.3568,1.3515,1.3506,1.3498,0,0,0,0,0,0,1.327,1.3326,1.3348,1.3345,1.337,1.3415,1.3409,1.3437,1.3455,1.346,1.3506,1.3514,1.3512,1.3532,1.3544,1.3536,1.3565,1.3563,1.3523,1.3515,1.3508,1.3503,1.3591,0,0,0,0,0,1.3255,1.3266,1.3313,1.3306,1.3318,1.3361,1.337,1.3398,1.3424,1.3435,1.3464,1.3487,1.3502,1.3509,1.3524,1.3515,1.3525,1.3507,1.3501,1.3495,1.3492,1.349,1.3483,1.3557,1.3557,1.3557,0,0,1.3224,1.3256,1.326,1.3294,1.3316,1.3325,1.3369,1.3377,1.3384,1.3435,1.3441,1.3463,1.3493,1.349,1.349,1.3506,1.3474,1.3491,1.3486,1.3487,1.3486,1.3479,1.3473,1.3555,1.3556,1.3556,0,0,1.3173,1.3198,1.3196,1.3218,1.3252,1.3282,1.3281,1.3323,1.334,1.3347,1.3386,1.3395,1.3418,1.3438,1.3451,1.341,1.3438,1.3413,1.3378,1.3375,1.3369,1.3364,1.335,1.3345,1.3411,1.3411,1.3411,0,1.313,1.3147,1.319,1.3196,1.321,1.326,1.3257,1.3276,1.3313,1.3321,1.3339,1.337,1.3393,1.3397,1.3387,1.3396,1.3396,1.3409,1.3367,1.3362,1.3358,1.3346,1.334,1.3408,1.3408,1.3408,1.3409,0,1.3093,1.3103,1.3097,1.3134,1.3147,1.3149,1.3192,1.32,1.3227,1.3255,1.3262,1.3292,1.3315,1.3318,1.3343,1.3325,1.3334,1.3359,1.3389,1.3347,1.3336,1.3331,1.3403,1.3404,1.3405,1.3406,0,0,1.2999,1.3062,1.3059,1.3077,1.312,1.3128,1.3133,1.3157,1.3163,1.3187,1.3192,1.3211,1.3235,1.325,1.3278,1.3276,1.3243,1.3301,1.3303,1.329,1.3226,1.3207,1.32,1.3262,1.3262,1.3261,1.3223,0,1.2956,1.2968,1.3008,1.3007,1.3019,1.3067,1.3071,1.3097,1.3123,1.3136,1.3164,1.3178,1.3208,1.3217,1.3217,1.3247,1.3231,1.325,1.3267,1.3267,1.3257,1.3194,1.3174,1.3137,1.3219,1.3218,1.3218,0,1.2905,1.2929,1.293,1.2974,1.298,1.2983,1.301,1.3021,1.3052,1.3072,1.3089,1.3122,1.3129,1.3158,1.3168,1.3181,1.319,1.3206,1.3205,1.3208,1.3239,1.3195,1.3126,1.312,1.3211,1.3212,1.3212,0,1.2838,1.287,1.2875,1.2889,1.294,1.2941,1.2962,1.2995,1.3008,1.303,1.3039,1.3061,1.3074,1.309,1.3128,1.3146,1.3134,1.3166,1.315,1.3149,1.3145,1.3144,1.3076,1.3151,1.3151,1.3151,1.3151,0,1.2785,1.2784,1.2846,1.2849,1.2849,1.2896,1.2895,1.292,1.2949,1.2958,1.3001,1.3008,1.3057,1.307,1.3099,1.3104,1.3109,1.3124,1.3132,1.3121,1.3119,1.3127,1.313,1.315,1.315,1.315,1.315,0,1.2709,1.2751,1.276,1.2809,1.2821,1.2819,1.2861,1.2866,1.2896,1.2906,1.2911,1.2957,1.2975,1.3015,1.3042,1.3062,1.3059,1.3073,1.3049,1.3053,1.3035,1.3036,1.2969,1.2963,1.3042,1.3041,1.304,0,1.2672,1.2673,1.2723,1.2733,1.2753,1.2768,1.2782,1.2828,1.284,1.2877,1.2877,1.2899,1.2918,1.2943,1.2979,1.3,1.3015,1.299,1.3018,1.3007,1.3015,1.3014,1.3015,1.2984,1.2982,1.2982,1.2981,0,1.2602,1.2624,1.2643,1.267,1.2686,1.2708,1.2733,1.2739,1.2791,1.2803,1.2822,1.2837,1.2867,1.2887,1.2914,1.2935,1.2966,1.2972,1.297,1.2957,1.2943,1.2951,1.3031,1.2973,1.2974,1.2974,1.2975,1.2975,1.2545,1.2549,1.2585,1.2606,1.263,1.2653,1.266,1.2692,1.271,1.2738,1.2765,1.2781,1.2814,1.2854,1.2873,1.2887,1.2903,1.2899,1.2898,1.2896,1.2891,1.2942,1.2892,1.2892,1.2893,1.2893,1.2893,0,1.2478,1.2505,1.2523,1.2558,1.2574,1.2605,1.2634,1.2645,1.266,1.2689,1.2708,1.273,1.2751,1.2789,1.2813,1.2816,1.2831,1.2821,1.2821,1.2826,1.2875,1.2876,1.2809,1.2809,1.2809,1.2809,1.2809,1.2809,1.2445,1.2453,1.2479,1.25,1.2526,1.2544,1.2559,1.258,1.2604,1.2628,1.2646,1.2671,1.2704,1.2731,1.2751,1.2762,1.2768,1.2753,1.2768,1.2814,1.2822,1.2829,1.283,1.2754,1.2754,1.2717,1.2717,1.2717]}]]